Starlink 30441

operational
NORAD ID: 57869 Int'l Des: 2023-144 Owner: SPXS Country: US Constellation: starlink
LEOCIRCULAR

Über Starlink 30441

Beschreibung wird geladen...

Live-Position

3D-Globus wird geladen...

Nächste Überflüge

Höhenverlauf

Altitude vs Time

uPlot chart will show altitude changes over time

Zweizeiliger Elementsatz

1 57869U 23144F 25259.44122449 .00001203 00000-0 10415-3 0 9992
2 57869 42.9986 154.7143 0001162 263.8260 96.2450 15.02533764111350
Epoch: 16. Sept. 2025 • Age: 15 hours

Aktueller Status

Höhe 562.9 km
Geschwindigkeit 7.59 km/s
Subsatellitenpunkt 42.52°N, 146.56°W
Startdatum 16. Sept. 2023
Alter 2 years
Typ internet

Technische Details

Klassifizierung Payload
Masse 730.00 kg
Trockenmasse 700.00 kg
Gesamtmasse 730.00 kg
Länge 0.30 m
Durchmesser 4.10 m
Spannweite 29.00 m
Form Box + pan
Hersteller SPXS
Bus-Typ Starlink V2M
Phasenstatus In Orbit
Besitzer/Staat SPXS/US

Große Konstellationen

Loading constellations...